Location: Unspecified
(0.0000°N, 0.0000°E)
Time: 04:29:00
(UTC+00:00)

SR - Pass Details

Date: 10 October 2022
Orbit: 577 x 874 km, 66.7° (Epoch: 03 December)

Event Time Altitude Azimuth Distance (km) Brightness Sun altitude
Rises 04:43:01 0° 4° (N) 3,007 ? -15.9°
Reaches altitude 10° 04:45:55 10° 21° (NNE) 2,042 ? -15.2°
Maximum altitude 04:49:16 20° 68° (ENE) 1,444 ? -14.4°
Drops below altitude 10° 04:52:28 10° 116° (ESE) 1,946 ? -13.6°
Sets 04:55:08 0° 133° (SE) 2,820 ? -12.9°
